Regional Weather Roundup
Issued by NWS

Home | Current Version | Previous Version | Text Only | Print | Product List | Glossary Off
Versions: 1 2 3 4 5 6 7 8 9 10 11 12 13 14 15 16 17 18 19 20 21 22 23 24 25 26 27 28 29 30 31 32 33 34 35 36 37 38 39 40 41 42 43 44 45 46 47 48 49 50

000
ASUS43 KFSD 251610
RWRSD

WEATHER ROUNDUP FOR SOUTH DAKOTA
NATIONAL WEATHER SERVICE SIOUX FALLS SD
1100 AM CDT MON MAY 25 2015

NOTE: "FAIR" INDICATES FEW OR NO CLOUDS BELOW 12,000 FEET WITH NO
SIGNIFICANT WEATHER AND/OR OBSTRUCTIONS TO VISIBILITY.


SDZ001>005-009-010-012>017-251700-
NORTHWEST AND NORTH CENTRAL SOUTH DAKOTA

CITY           SKY/WX    TMP DP  RH WIND       PRES   REMARKS
BUFFALO          N/A     54  52  93 NE10      29.80S
FAITH            N/A     54  52  93 NE15      29.83R
MOBRIDGE       LGT RAIN  59  59 100 NE10      29.80R FOG
$$

SDZ012>016-024>037-041>051-057-063-072>074-251700-
SOUTHWEST AND SOUTH CENTRAL SOUTH DAKOTA

CITY           SKY/WX    TMP DP  RH WIND       PRES   REMARKS
RAPID CTY ARPT CLOUDY    57  52  83 NW15      29.82F
PIERRE         CLOUDY    60  56  86 NE8       29.78R
CUSTER         CLOUDY    53  42  66 N5        29.86F
ELLSWORTH AFB  CLOUDY    59  54  82 N14       29.82
PHILIP         CLOUDY    60  53  77 N8        29.79F
PINE RIDGE     CLOUDY    55  50  83 N12       29.81S
SPEARFISH      LGT RAIN  50  50 100 N3        29.88S
WINNER         CLOUDY    63  56  78 NE9       29.77F
$$

SDZ004>011-016>023-039-040-251700-
NORTHEAST SOUTH DAKOTA

CITY           SKY/WX    TMP DP  RH WIND       PRES   REMARKS
ABERDEEN       LGT RAIN  59  55  87 NE13      29.78S
WATERTOWN      CLOUDY    61  55  81 NW7       29.73R
BROOKINGS      CLOUDY    61  57  88 W8        29.75S
SISSETON         N/A     57  56  96 NE24G31   29.72S
$$

SDZ017-020-022-023-036>040-048>070-251700-
SOUTHEAST SOUTH DAKOTA

CITY           SKY/WX    TMP DP  RH WIND       PRES   REMARKS
SIOUX FALLS    CLOUDY    64  57  78 SW5       29.76S
HURON          CLOUDY    60  57  89 N8        29.75S
CHAMBERLAIN    CLOUDY    58  56  91 CALM      29.78S
MITCHELL       CLOUDY    62  57  83 W3        29.77S
YANKTON        CLOUDY    61  57  88 NW3       29.77S
$$

ABBREVIATIONS USED IN REMARKS
   TC - TEMPERATURE IN CELSIUS
  WCI - WIND CHILL INDEX
   HX - HEAT INDEX
  VSB - VISIBILITY



USA.gov is the U.S. government's official web portal to all federal, state and local government web resources and services.